Wind_Speed
16 16 16 14 13 13 12 12 12 13 13 13 14 14 14 13 12 12 12 12 11 11 11 10 10 10 10 10 10 10 10 10 10 10 10 10 10 9 9 9 9 9 8
17 17 17 15 15 14 14 13 14 15 15 15 15 15 15 14 13 12 12 11 11 11 11 11 10 10 11 11 11 10 10 9 9 10 10 10 10 10 9 9 9 9 9
18 17 17 17 16 15 15 14 15 15 16 15 16 16 15 14 13 13 12 12 11 11 11 12 11 11 11 12 12 11 11 10 11 11 11 10 9 10 10 10 10 10 10
18 17 17 17 17 16 15 15 16 16 16 15 15 15 14 14 14 13 13 13 12 12 12 12 12 11 11 11 11 11 11 11 11 12 12 11 10 10 10 10 10 11 11
18 17 17 18 18 17 17 16 16 16 16 15 15 15 14 14 14 13 13 13 14 13 12 13 13 12 11 11 10 11 11 10 10 11 11 11 11 11 11 11 11 12 12
19 18 18 18 19 18 17 16 16 16 16 16 15 15 14 14 14 14 14 15 15 14 13 12 12 11 11 11 10 10 10 10 10 10 10 11 11 12 12 12 12 13 13
20 20 19 19 19 18 18 16 16 17 17 17 16 15 14 14 14 14 15 15 15 14 13 13 12 11 11 11 11 11 12 12 12 12 11 11 12 12 12 12 12 12 12
21 20 19 19 19 19 19 18 16 16 17 16 16 15 15 15 15 15 15 15 14 14 14 13 13 12 11 12 12 12 13 13 13 13 13 13 13 13 14 13 13 13 13
22 21 20 20 19 19 18 19 17 16 16 16 16 16 16 16 15 15 15 15 14 14 14 14 14 14 13 13 13 13 13 14 14 14 14 14 14 14 15 15 15 14 15
22 21 20 20 19 19 19 18 18 17 17 17 17 16 16 16 16 16 15 15 14 15 15 14 14 14 14 14 14 14 15 15 15 15 15 15 15 15 16 16 16 16 16
24 22 21 20 20 20 20 19 19 18 18 18 18 18 17 18 18 17 17 17 17 16 15 15 15 15 15 15 15 15 16 16 17 17 17 16 16 16 16 16 17 17 17
25 25 23 22 21 22 21 21 21 20 20 20 19 19 19 19 18 18 18 18 18 17 17 16 16 16 15 15 16 17 17 17 18 18 18 17 17 17 17 17 17 17 17
25 26 26 25 24 23 23 23 23 22 22 22 21 20 19 19 19 19 19 19 19 18 18 17 17 16 16 16 17 18 18 18 18 18 18 18 18 18 19 18 18 18 19
25 26 26 26 24 24 24 24 25 24 23 22 22 21 20 20 20 21 21 20 20 20 19 19 19 18 18 18 19 19 19 19 19 19 20 20 20 20 20 20 20 20 20
25 25 27 27 25 25 26 26 26 25 24 24 23 23 22 21 21 22 22 22 21 21 21 20 21 20 19 20 20 20 20 21 21 21 21 22 21 21 21 21 21 21 21
26 26 26 27 26 26 26 26 26 26 26 25 24 24 23 23 22 23 23 23 23 22 22 22 22 21 21 21 21 21 22 22 24 24 23 24 24 23 22 22 22 23 23
26 27 27 27 27 27 27 27 27 27 26 26 25 25 24 24 24 24 24 24 23 23 23 23 23 22 22 22 23 23 23 24 24 24 24 24 25 24 24 24 24 25 25
28 28 28 27 27 27 27 27 27 27 26 26 25 25 25 25 24 24 24 24 24 23 24 23 23 23 23 23 24 25 25 24 24 24 24 25 25 25 25 26 26 27 27
27 28 27 26 26 26 27 26 27 27 27 26 26 25 24 24 23 23 23 23 22 23 24 24 24 24 24 25 26 26 25 25 24 24 24 25 26 26 26 26 26 27 28
27 27 27 27 27 26 26 27 27 27 27 27 26 26 26 25 25 24 24 24 24 24 25 25 25 25 26 27 27 27 26 25 26 26 25 25 26 26 26 26 27 27 27
27 27 27 28 27 26 27 28 28 27 27 27 27 28 28 27 26 26 26 26 26 26 27 26 26 26 27 28 28 27 27 27 27 27 27 26 26 27 27 27 27 28 28
27 27 27 28 28 28 27 28 28 28 28 28 28 27 27 27 27 27 27 27 27 27 28 28 27 27 28 29 29 28 26 27 28 28 28 27 27 26 27 27 28 28 29
27 27 28 28 28 28 28 28 28 28 29 28 28 27 27 28 28 28 29 29 29 29 29 29 28 28 29 28 28 28 27 28 29 29 28 28 28 28 28 28 29 29 29
27 27 28 28 28 28 28 28 28 28 29 29 29 28 28 29 29 29 30 30 30 30 30 30 30 30 30 30 29 29 29 28 28 29 29 29 29 29 29 29 29 29 29
28 27 28 28 28 28 28 28 28 29 29 29 29 29 29 29 29 30 30 31 30 30 30 30 31 30 30 31 31 31 30 29 29 29 29 28 29 30 30 30 29 29 29
28 29 29 28 28 28 28 28 28 29 29 29 29 29 29 29 30 30 31 30 31 31 31 31 31 31 31 31 30 30 30 30 30 30 29 29 28 28 29 29 29 29 30
Wind_Direction
273 273 275 281 284 287 290 291 295 300 302 306 308 310 311 310 307 304 305 307 303 300 299 294 291 286 280 279 280 279 280 281 281 283 283 283 285 287 286 283 283 285 287
270 270 272 274 279 285 285 287 290 296 298 301 304 306 306 305 308 305 304 306 302 299 297 293 289 287 283 280 278 276 279 280 279 282 284 283 286 288 285 279 280 284 287
269 270 271 273 277 280 281 282 288 294 298 300 302 304 304 303 306 305 302 302 302 300 295 291 288 285 282 279 277 278 278 277 277 281 283 287 289 287 287 282 280 283 286
268 269 269 272 275 276 278 281 285 290 294 297 301 302 304 303 304 304 299 295 297 297 291 286 284 282 280 280 279 279 280 276 278 279 281 286 288 291 289 284 282 284 285
268 268 270 271 273 274 273 277 283 287 290 292 295 298 301 301 301 303 299 297 296 297 292 285 283 279 276 277 278 279 279 277 278 280 282 284 288 292 291 287 284 285 282
267 266 267 268 270 273 271 274 280 283 285 285 287 294 297 299 300 302 302 300 301 302 300 291 287 285 280 277 277 279 282 279 280 282 284 284 288 294 293 290 287 284 284
266 267 264 266 266 268 270 271 274 277 281 284 288 290 293 296 298 301 303 302 302 299 298 295 289 285 280 276 277 279 281 283 282 283 283 284 286 289 289 290 292 290 288
264 264 266 268 269 269 267 267 268 272 277 282 286 289 291 294 296 297 300 300 302 300 295 293 288 285 280 276 276 279 280 283 282 283 284 285 285 288 286 287 292 292 291
264 262 259 264 268 269 266 268 267 269 275 280 283 286 288 291 295 297 297 297 298 299 298 293 288 283 281 280 279 278 281 281 282 283 285 286 286 288 287 286 288 291 293
262 264 260 261 263 267 265 265 264 265 272 277 280 282 285 289 292 292 296 294 295 297 301 295 289 285 282 280 279 278 281 284 283 283 283 284 286 287 286 288 289 291 292
262 264 262 263 265 264 266 266 264 265 269 273 277 280 282 284 288 290 292 291 291 293 297 295 290 287 285 281 280 279 280 281 282 283 282 282 283 284 285 286 288 291 292
260 261 261 261 264 265 265 266 265 267 268 270 273 276 280 283 285 287 289 289 289 291 292 294 289 285 286 282 281 282 282 283 282 282 282 280 281 282 284 286 289 290 290
260 261 260 260 260 262 263 263 264 267 270 269 271 273 276 279 282 284 285 285 286 288 289 289 290 286 285 285 284 282 282 283 283 283 282 280 280 282 283 285 287 289 288
256 259 258 259 260 260 262 263 262 266 269 269 269 271 272 275 279 280 282 283 283 283 283 285 286 287 287 287 287 282 280 281 281 282 282 280 279 280 282 284 286 288 289
255 257 258 259 258 258 261 263 263 264 266 268 269 269 270 273 275 277 280 281 280 278 280 281 283 285 286 288 288 284 279 278 279 281 281 281 279 280 281 283 285 286 288
257 258 261 260 259 259 262 262 263 263 264 265 268 269 270 270 272 275 277 278 278 278 279 280 281 283 285 287 289 287 283 280 280 280 280 280 278 278 281 282 283 285 287
259 260 261 261 260 260 260 261 261 262 265 264 267 267 270 269 271 273 275 277 277 278 279 280 282 283 285 288 289 287 285 284 282 280 280 281 279 279 279 280 282 284 285
261 260 259 261 260 259 258 260 261 262 261 260 264 266 269 269 269 271 274 276 277 279 280 280 282 283 286 289 289 287 285 284 284 281 280 281 282 278 278 279 281 284 285
260 260 260 260 259 258 257 258 260 261 262 265 268 271 271 270 272 272 273 276 279 281 282 282 283 284 288 289 290 288 287 286 287 285 283 282 282 281 279 280 282 284 285
261 260 260 258 258 257 256 257 260 262 264 267 268 271 272 273 274 274 276 277 279 280 282 282 284 286 289 291 291 287 286 285 286 286 284 284 284 283 281 282 283 284 284
261 260 260 260 259 258 257 259 260 262 264 266 267 268 270 271 273 275 276 277 279 280 281 283 286 289 290 290 290 288 285 286 287 285 284 284 285 284 283 284 284 285 286
260 259 259 259 261 261 260 260 261 262 264 265 267 267 268 270 271 272 274 276 278 279 280 282 286 287 288 287 287 286 285 284 285 284 283 284 285 285 286 285 285 285 285
261 260 260 259 259 260 260 262 264 264 264 264 265 267 269 270 271 271 274 275 277 279 281 282 284 286 287 287 287 286 286 283 282 282 282 281 282 283 284 284 284 284 284
264 263 262 260 260 260 261 262 263 265 265 265 266 266 269 271 272 272 274 275 276 279 282 283 284 286 287 288 289 288 286 284 283 282 282 282 282 282 283 283 283 283 283
267 267 266 263 261 261 261 262 263 264 265 265 266 267 268 269 271 273 275 277 278 281 282 282 283 285 287 288 288 287 286 285 285 283 283 283 283 283 283 283 282 283 284
268 268 266 265 264 262 261 261 262 263 264 266 266 267 268 270 271 273 274 276 278 281 283 284 284 284 287 287 286 286 287 286 284 284 282 282 282 283 283 281 282 284 284
Height
5877 5877 5876 5876 5877 5877 5877 5877 5877 5876 5876 5875 5874 5872 5871 5870 5870 5869 5868 5867 5866 5865 5865 5864 5864 5864 5864 5865 5865 5865 5864 5865 5865 5864 5864 5865 5864 5864 5864 5864 5864 5864 5864
5873 5874 5874 5874 5874 5874 5874 5875 5874 5874 5873 5873 5871 5870 5869 5868 5868 5867 5866 5865 5864 5864 5863 5863 5862 5862 5862 5862 5862 5862 5862 5862 5863 5863 5863 5863 5863 5862 5862 5862 5862 5862 5862
5870 5871 5871 5871 5871 5871 5872 5872 5871 5871 5870 5870 5869 5868 5867 5866 5865 5865 5864 5863 5862 5862 5861 5860 5860 5860 5860 5860 5860 5860 5860 5860 5861 5860 5861 5861 5860 5860 5861 5860 5860 5860 5859
5867 5867 5867 5867 5868 5868 5868 5868 5868 5868 5867 5867 5866 5865 5864 5863 5863 5862 5862 5861 5860 5860 5859 5858 5858 5858 5858 5857 5857 5857 5858 5858 5858 5858 5858 5859 5858 5857 5858 5858 5858 5857 5857
5862 5864 5864 5864 5864 5864 5865 5865 5865 5864 5864 5864 5863 5862 5862 5861 5860 5860 5859 5858 5858 5857 5856 5856 5856 5856 5855 5855 5855 5855 5855 5856 5856 5856 5856 5856 5856 5855 5855 5856 5855 5855 5854
5858 5860 5860 5860 5860 5860 5860 5861 5861 5861 5861 5860 5860 5859 5859 5858 5857 5857 5856 5856 5855 5854 5854 5854 5853 5853 5853 5853 5853 5853 5853 5853 5853 5854 5854 5854 5853 5853 5853 5852 5852 5852 5852
5854 5855 5856 5856 5855 5856 5857 5857 5857 5857 5857 5857 5857 5856 5856 5855 5855 5854 5853 5853 5852 5852 5851 5851 5851 5850 5850 5851 5851 5851 5851 5851 5851 5851 5851 5851 5851 5850 5850 5849 5849 5848 5849
5850 5851 5852 5852 5851 5852 5853 5853 5853 5853 5853 5853 5853 5853 5852 5852 5852 5851 5851 5850 5850 5849 5849 5848 5848 5848 5848 5848 5848 5849 5848 5848 5848 5848 5848 5848 5848 5847 5847 5846 5846 5845 5845
5845 5846 5847 5847 5848 5848 5848 5849 5849 5849 5850 5850 5849 5849 5849 5849 5849 5848 5848 5847 5847 5846 5846 5845 5845 5845 5845 5845 5845 5845 5845 5845 5845 5845 5845 5844 5844 5844 5843 5843 5843 5843 5842
5840 5838 5840 5841 5843 5844 5844 5844 5844 5845 5846 5846 5846 5846 5846 5845 5845 5845 5845 5844 5844 5843 5843 5842 5842 5842 5842 5842 5842 5842 5842 5842 5841 5841 5841 5841 5840 5840 5840 5839 5839 5838 5838
5836 5835 5836 5837 5838 5840 5840 5840 5840 5841 5842 5842 5842 5842 5842 5842 5841 5841 5841 5841 5841 5840 5840 5839 5839 5839 5838 5838 5838 5838 5838 5838 5837 5837 5837 5837 5836 5836 5836 5835 5834 5834 5833
5831 5831 5832 5832 5833 5834 5835 5835 5836 5836 5837 5838 5838 5838 5838 5838 5838 5838 5838 5837 5837 5837 5836 5836 5835 5835 5834 5834 5834 5834 5834 5833 5833 5833 5832 5832 5832 5831 5831 5830 5830 5829 5828
5826 5826 5826 5827 5828 5829 5830 5830 5831 5831 5832 5833 5833 5833 5833 5834 5834 5834 5834 5834 5833 5833 5833 5832 5832 5831 5831 5830 5830 5829 5829 5828 5828 5828 5827 5827 5827 5826 5826 5825 5825 5824 5823
5820 5821 5821 5821 5822 5822 5823 5824 5825 5826 5826 5827 5828 5828 5829 5829 5829 5829 5829 5829 5829 5829 5828 5828 5827 5827 5826 5826 5825 5824 5824 5823 5823 5823 5822 5822 5821 5821 5821 5820 5819 5819 5818
5813 5815 5815 5816 5817 5818 5818 5819 5820 5820 5821 5821 5822 5822 5823 5823 5824 5824 5824 5824 5824 5824 5823 5823 5823 5822 5821 5821 5820 5819 5818 5818 5818 5817 5817 5816 5816 5815 5815 5814 5813 5813 5812
5807 5808 5809 5810 5811 5812 5813 5813 5814 5814 5815 5815 5816 5817 5817 5818 5818 5818 5819 5819 5818 5818 5818 5818 5817 5817 5816 5815 5814 5814 5813 5812 5812 5811 5810 5810 5809 5809 5808 5807 5807 5806 5805
5800 5802 5802 5803 5804 5805 5806 5807 5807 5808 5808 5809 5810 5810 5811 5812 5812 5812 5813 5813 5812 5812 5812 5812 5811 5811 5810 5810 5809 5808 5807 5806 5805 5804 5804 5803 5802 5802 5802 5801 5800 5799 5798
5794 5794 5795 5796 5797 5798 5799 5800 5801 5801 5801 5801 5803 5804 5805 5805 5806 5806 5806 5807 5807 5806 5806 5805 5805 5805 5804 5803 5803 5802 5800 5800 5799 5798 5797 5796 5796 5795 5794 5794 5793 5792 5791
5786 5787 5788 5789 5790 5791 5792 5793 5794 5795 5794 5796 5797 5798 5799 5799 5799 5800 5800 5800 5800 5800 5800 5799 5799 5798 5798 5797 5796 5795 5794 5793 5792 5791 5790 5789 5789 5788 5787 5786 5786 5785 5783
5780 5780 5781 5782 5783 5784 5786 5786 5787 5788 5789 5790 5791 5792 5793 5793 5793 5793 5794 5794 5794 5794 5793 5793 5792 5792 5791 5790 5789 5788 5787 5786 5785 5784 5783 5782 5781 5780 5779 5779 5778 5777 5776
5772 5773 5774 5775 5776 5777 5778 5780 5781 5782 5783 5783 5784 5785 5786 5786 5787 5787 5787 5787 5787 5787 5787 5786 5785 5785 5784 5783 5782 5780 5780 5779 5778 5777 5776 5775 5774 5773 5772 5771 5770 5769 5768
5765 5766 5767 5768 5769 5770 5771 5772 5774 5775 5776 5776 5777 5778 5779 5779 5780 5780 5780 5780 5780 5780 5779 5779 5778 5778 5777 5776 5774 5773 5772 5771 5770 5769 5768 5767 5767 5766 5765 5763 5762 5761 5760
5758 5759 5760 5761 5762 5763 5764 5765 5766 5767 5768 5769 5770 5771 5771 5772 5772 5773 5773 5773 5773 5772 5772 5771 5771 5770 5769 5767 5766 5766 5765 5763 5762 5761 5761 5760 5759 5758 5756 5755 5754 5753 5752
5751 5751 5752 5753 5754 5755 5756 5757 5758 5759 5761 5762 5763 5763 5764 5764 5765 5765 5765 5765 5765 5765 5764 5764 5763 5762 5761 5759 5758 5757 5756 5755 5754 5753 5752 5751 5750 5749 5748 5747 5745 5744 5743
5742 5743 5744 5745 5746 5747 5748 5749 5751 5752 5753 5754 5754 5755 5756 5756 5757 5757 5757 5757 5757 5757 5756 5756 5755 5754 5753 5751 5750 5748 5747 5746 5745 5744 5743 5743 5742 5741 5739 5738 5737 5735 5734
5735 5736 5736 5737 5738 5739 5740 5741 5743 5744 5744 5745 5746 5747 5748 5748 5749 5749 5749 5749 5749 5748 5748 5747 5746 5745 5744 5742 5741 5740 5738 5737 5736 5735 5734 5734 5733 5732 5731 5729 5728 5726 5725